This demonstration page uses our WeatherBlox Daily Observations layout. Learn more.

Left ArrowRight Arrow

53.62937, 11.41316

Hourly Observations for April 21, 2021

Temp ( °F °C ) Dew Point ( °F °C ) Humidity (%) Winds ( mph kmh ) Pressure ( in mb ) Visibility ( mi km ) Precip ( " mm )
7:50 am 07:50 Mostly Sunny 43 6 36 2 76 76 VRB 1 2 29.95 1014 7 11 N/A
8:20 am 08:20 Mostly Sunny 45 7 37 3 76 76 SW 3 6 29.95 1014 7 11 N/A
8:50 am 08:50 Mostly Sunny 48 9 39 4 71 71 SW 5 7 29.94 1014 7 11 N/A
9:20 am 09:20 Mostly Sunny 50 10 41 5 71 71 W 6 9 29.94 1014 7 11 N/A
9:50 am 09:50 Mostly Sunny 52 11 43 6 72 72 W 8 13 29.94 1014 7 11 N/A
10:20 am 10:20 Mostly Sunny 54 12 43 6 67 67 W 9 15 29.94 1014 7 11 N/A
10:50 am 10:50 Partly Cloudy 52 11 45 7 77 77 VRB 8 13 29.97 1015 30 48 N/A
11:20 am 11:20 Mostly Cloudy 52 11 43 6 72 72 W 8 13 29.97 1015 30 48 N/A
11:50 am 11:50 Mostly Cloudy 50 10 43 6 76 76 W 7 11 29.97 1015 30 48 N/A
12:20 pm 12:20 Mostly Cloudy 50 10 43 6 76 76 W 7 11 29.97 1015 30 48 N/A
12:50 pm 12:50 Mostly Cloudy 50 10 43 6 76 76 VRB 6 9 29.97 1015 30 48 N/A
1:20 pm 13:20 Mostly Cloudy 52 11 41 5 67 67 W 8 13 29.97 1015 30 48 N/A
1:50 pm 13:50 Partly Cloudy 52 11 39 4 62 62 VRB 8 13 29.97 1015 30 48 N/A
2:20 pm 14:20 Partly Cloudy 54 12 37 3 54 54 WSW 12 19 29.97 1015 30 48 N/A
2:50 pm 14:50 Partly Cloudy 54 12 36 2 51 51 W 9 15 29.94 1014 30 48 N/A
3:20 pm 15:20 Partly Cloudy 54 12 34 1 47 47 W 10 17 29.94 1014 30 48 N/A
3:50 pm 15:50 Mostly Sunny 54 12 30 -1 41 41 W 10 17 29.94 1014 30 48 N/A
4:20 pm 16:20 Mostly Sunny 52 11 28 -2 41 41 VRB 9 15 29.94 1014 30 48 N/A
4:50 pm 16:50 Mostly Sunny 52 11 28 -2 41 41 WSW 13 20 29.94 1014 7 11 N/A
5:20 pm 17:20 Mostly Sunny 52 11 27 -3 38 38 WSW 12 19 29.94 1014 7 11 N/A
5:50 pm 17:50 Mostly Sunny 50 10 27 -3 40 40 W 10 17 29.97 1015 7 11 N/A
6:20 pm 18:20 Mostly Sunny 50 10 27 -3 40 40 W 10 17 29.97 1015 7 11 N/A
6:50 pm 18:50 Mostly Sunny 46 8 28 -2 50 50 W 12 19 29.97 1015 7 11 N/A
7:20 pm 19:20 Mostly Sunny 46 8 30 -1 53 53 W 9 15 29.97 1015 7 11 N/A
7:50 pm 19:50 Mostly Sunny 46 8 28 -2 50 50 WSW 10 17 29.97 1015 30 48 N/A
8:20 pm 20:20 Mostly Sunny 45 7 28 -2 53 53 VRB 9 15 30.00 1016 30 48 N/A
8:50 pm 20:50 Partly Cloudy 45 7 28 -2 53 53 VRB 8 13 30.00 1016 30 48 N/A
9:20 pm 21:20 Partly Cloudy 43 6 27 -3 53 53 WSW 8 13 30.00 1016 30 48 N/A
9:50 pm 21:50 Mostly Clear 41 5 27 -3 57 57 VRB 9 15 30.00 1016 30 48 N/A
10:20 pm 22:20 Mostly Clear 41 5 27 -3 57 57 WSW 9 15 30.00 1016 30 48 N/A

Powered by AerisWeather